Location: Gensac
(43.2177°N, 1.1313°E)
Time: 22:45:57
(UTC+00:00)

Cosmos 1933 - Visible Passes

Search period start: 13 March 2026 00:00
Search period end: 23 March 2026 00:00
Orbit: 509 x 515 km, 82.5° (Epoch: 13 March)

Date Brightness Start Highest point End Pass type
(mag) Time Alt. Az. Time Alt. Az. Time Alt. Az.
13 Mar 3.3 05:21:20 10° S 05:25:08 79° E 05:28:59 10° N visible
14 Mar 3.8 05:05:09 10° S 05:08:54 61° E 05:12:42 10° NNE visible
15 Mar 4.3 04:49:00 10° SSE 04:52:40 47° E 04:56:22 10° NNE visible
16 Mar 4.8 04:32:55 10° SSE 04:36:26 37° E 04:39:59 10° NNE visible
17 Mar 5.2 04:16:52 10° SSE 04:20:12 29° E 04:23:33 10° NNE visible
18 Mar 5.6 04:00:54 10° SE 04:03:58 23° E 04:07:04 10° NE visible
19 Mar 5.9 03:45:01 10° SE 03:47:45 19° E 03:50:29 10° NE visible
19 Mar 4.1 05:19:50 10° SW 05:23:10 28° WNW 05:26:31 10° NNW visible
20 Mar 6.2 03:29:15 10° ESE 03:31:30 15° E 03:33:47 10° NE visible
20 Mar 3.8 05:03:17 10° SW 05:06:49 35° WNW 05:10:21 10° N visible
21 Mar 6.3 03:13:43 10° ESE 03:15:17 12° E 03:16:52 10° ENE visible
21 Mar 3.5 04:47:09 12° SSW 04:50:27 45° WNW 04:54:09 10° N visible
22 Mar 3.2 04:31:42 20° SSW 04:34:06 58° W 04:37:53 10° N visible
